#datetime,building,power
2022-08-15T06:04:00,thc,4.38
2022-08-15T06:05:00,thc,4.37
2022-08-15T06:06:00,thc,4.94
2022-08-15T06:07:00,thc,4.38
2022-08-15T06:08:00,thc,4.36
2022-08-15T06:09:00,thc,5.28
2022-08-15T06:10:00,thc,4.48
2022-08-15T06:11:00,thc,4.48
2022-08-15T06:12:00,thc,5.35
2022-08-15T06:13:00,thc,4.53
2022-08-15T06:14:00,thc,4.47
2022-08-15T06:15:00,thc,4.53
2022-08-15T06:16:00,thc,4.45
2022-08-15T06:17:00,thc,4.45
2022-08-15T06:18:00,thc,4.46
2022-08-15T06:19:00,thc,4.44
2022-08-15T06:20:00,thc,4.51
2022-08-15T06:21:00,thc,4.44
2022-08-15T06:22:00,thc,4.51
2022-08-15T06:23:00,thc,5.32
2022-08-15T06:24:00,thc,4.57
2022-08-15T06:25:00,thc,4.56
2022-08-15T06:26:00,thc,5.48
2022-08-15T06:27:00,thc,4.56
2022-08-15T06:28:00,thc,4.76
2022-08-15T06:29:00,thc,4.73
2022-08-15T06:30:00,thc,4.71
2022-08-15T06:31:00,thc,4.51
2022-08-15T06:32:00,thc,4.51
2022-08-15T06:33:00,thc,4.71
2022-08-15T06:34:00,thc,4.54
2022-08-15T06:35:00,thc,4.59
2022-08-15T06:36:00,thc,4.68
2022-08-15T06:37:00,thc,4.79
2022-08-15T06:38:00,thc,4.84
2022-08-15T06:39:00,thc,4.93
2022-08-15T06:40:00,thc,5.04
2022-08-15T06:41:00,thc,5.03
2022-08-15T06:42:00,thc,5.25
2022-08-15T06:43:00,thc,5.22
2022-08-15T06:44:00,thc,5.02
2022-08-15T06:45:00,thc,5.04
2022-08-15T06:46:00,thc,7.28
2022-08-15T06:47:00,thc,6.40
2022-08-15T06:48:00,thc,4.87
2022-08-15T06:49:00,thc,5.88
2022-08-15T06:50:00,thc,4.92
2022-08-15T06:51:00,thc,5.14
2022-08-15T06:52:00,thc,5.22
2022-08-15T06:53:00,thc,5.36
2022-08-15T06:54:00,thc,5.28
2022-08-15T06:55:00,thc,5.34
2022-08-15T06:56:00,thc,5.31
2022-08-15T06:57:00,thc,4.86
2022-08-15T06:58:00,thc,4.92
2022-08-15T06:59:00,thc,4.95
2022-08-15T07:00:00,thc,4.89
2022-08-15T07:01:00,thc,5.75
2022-08-15T07:02:00,thc,5.28
2022-08-15T07:03:00,thc,5.26
2022-08-15T07:04:00,thc,6.78
2022-08-15T07:05:00,thc,6.77
2022-08-15T07:06:00,thc,5.39
2022-08-15T07:07:00,thc,5.96
2022-08-15T07:08:00,thc,4.72
2022-08-15T07:09:00,thc,4.49
2022-08-15T07:10:00,thc,4.67
2022-08-15T07:11:00,thc,4.62
2022-08-15T07:12:00,thc,4.65
2022-08-15T07:13:00,thc,4.64
2022-08-15T07:14:00,thc,4.73
2022-08-15T07:15:00,thc,4.37
2022-08-15T07:16:00,thc,4.31
2022-08-15T07:17:00,thc,4.37
2022-08-15T07:18:00,thc,4.21
2022-08-15T07:19:00,thc,4.37
2022-08-15T07:20:00,thc,4.30
2022-08-15T07:21:00,thc,4.24
2022-08-15T07:22:00,thc,4.33
2022-08-15T07:23:00,thc,4.56
2022-08-15T07:24:00,thc,4.37
2022-08-15T07:25:00,thc,4.29
2022-08-15T07:26:00,thc,4.25
2022-08-15T07:27:00,thc,4.22
2022-08-15T07:28:00,thc,4.23
2022-08-15T07:29:00,thc,4.25
2022-08-15T07:30:00,thc,4.26
2022-08-15T07:31:00,thc,4.42
2022-08-15T07:32:00,thc,4.41
2022-08-15T07:33:00,thc,4.27
2022-08-15T07:34:00,thc,4.37
2022-08-15T07:35:00,thc,4.43
2022-08-15T07:36:00,thc,4.34
2022-08-15T07:37:00,thc,4.31
2022-08-15T07:38:00,thc,4.29
2022-08-15T07:39:00,thc,4.20
2022-08-15T07:40:00,thc,4.12
2022-08-15T07:41:00,thc,4.06
2022-08-15T07:42:00,thc,3.92
2022-08-15T07:43:00,thc,3.99
2022-08-15T07:44:00,thc,4.01
2022-08-15T07:45:00,thc,4.09
2022-08-15T07:46:00,thc,4.01
2022-08-15T07:47:00,thc,4.00
2022-08-15T07:48:00,thc,3.99
2022-08-15T07:49:00,thc,4.05
2022-08-15T07:50:00,thc,4.04
2022-08-15T07:51:00,thc,4.10
2022-08-15T07:52:00,thc,4.08
2022-08-15T07:53:00,thc,4.06
2022-08-15T07:54:00,thc,4.01
2022-08-15T07:55:00,thc,3.98
2022-08-15T07:56:00,thc,3.95
2022-08-15T07:57:00,thc,4.02
2022-08-15T07:58:00,thc,4.06
2022-08-15T07:59:00,thc,4.04
2022-08-15T08:00:00,thc,3.99
2022-08-15T08:01:00,thc,4.05
2022-08-15T08:02:00,thc,4.06
2022-08-15T08:03:00,thc,4.27
2022-08-15T08:04:00,thc,4.32
2022-08-15T08:05:00,thc,4.13
2022-08-15T08:06:00,thc,4.21
2022-08-15T08:07:00,thc,4.23
2022-08-15T08:08:00,thc,4.10
2022-08-15T08:09:00,thc,4.05
2022-08-15T08:10:00,thc,4.11
2022-08-15T08:11:00,thc,4.12
2022-08-15T08:12:00,thc,4.07
2022-08-15T08:13:00,thc,3.99
2022-08-15T08:14:00,thc,4.06
2022-08-15T08:15:00,thc,4.05
2022-08-15T08:16:00,thc,3.96
2022-08-15T08:17:00,thc,4.19
2022-08-15T08:18:00,thc,4.18
2022-08-15T08:19:00,thc,4.25
2022-08-15T08:20:00,thc,4.21
2022-08-15T08:21:00,thc,4.15
2022-08-15T08:22:00,thc,4.21
2022-08-15T08:23:00,thc,4.13
2022-08-15T08:24:00,thc,4.32
2022-08-15T08:25:00,thc,4.23
2022-08-15T08:26:00,thc,4.16
2022-08-15T08:27:00,thc,4.24
2022-08-15T08:28:00,thc,4.50
2022-08-15T08:29:00,thc,4.50
2022-08-15T08:30:00,thc,4.59
2022-08-15T08:31:00,thc,4.25
2022-08-15T08:32:00,thc,4.21
2022-08-15T08:33:00,thc,4.57
2022-08-15T08:34:00,thc,4.29
2022-08-15T08:35:00,thc,12.33
2022-08-15T08:36:00,thc,11.98
2022-08-15T08:37:00,thc,11.95
2022-08-15T08:38:00,thc,11.99
2022-08-15T08:39:00,thc,11.93
2022-08-15T08:40:00,thc,11.97
2022-08-15T08:41:00,thc,4.62
2022-08-15T08:42:00,thc,8.68
2022-08-15T08:43:00,thc,8.68
2022-08-15T08:44:00,thc,4.79
2022-08-15T08:45:00,thc,8.75
2022-08-15T08:46:00,thc,8.54
2022-08-15T08:47:00,thc,4.45
2022-08-15T08:48:00,thc,8.56
2022-08-15T08:49:00,thc,8.44
2022-08-15T08:50:00,thc,4.34
2022-08-15T08:51:00,thc,8.34
2022-08-15T08:52:00,thc,8.38
2022-08-15T08:53:00,thc,4.33
2022-08-15T08:54:00,thc,8.42
2022-08-15T08:55:00,thc,8.37
2022-08-15T08:56:00,thc,4.26
2022-08-15T08:57:00,thc,8.34
2022-08-15T08:58:00,thc,4.37
2022-08-15T08:59:00,thc,8.34
2022-08-15T09:00:00,thc,8.23
2022-08-15T09:01:00,thc,4.14
2022-08-15T09:02:00,thc,4.18
2022-08-15T09:03:00,thc,8.28
2022-08-15T09:04:00,thc,8.25
2022-08-15T09:05:00,thc,4.30
2022-08-15T09:06:00,thc,4.46
2022-08-15T09:07:00,thc,4.44
2022-08-15T09:08:00,thc,4.23
2022-08-15T09:09:00,thc,8.29
2022-08-15T09:10:00,thc,4.19
2022-08-15T09:11:00,thc,4.21
2022-08-15T09:12:00,thc,4.23
2022-08-15T09:13:00,thc,5.04
2022-08-15T09:14:00,thc,7.87
2022-08-15T09:15:00,thc,11.90
2022-08-15T09:16:00,thc,9.59
2022-08-15T09:17:00,thc,7.75
2022-08-15T09:18:00,thc,7.72
2022-08-15T09:19:00,thc,4.44
2022-08-15T09:20:00,thc,4.32
2022-08-15T09:21:00,thc,8.35
2022-08-15T09:22:00,thc,8.33
2022-08-15T09:23:00,thc,4.32
2022-08-15T09:24:00,thc,4.53
2022-08-15T09:25:00,thc,4.54
2022-08-15T09:26:00,thc,4.24
2022-08-15T09:27:00,thc,8.35
2022-08-15T09:28:00,thc,8.36
2022-08-15T09:29:00,thc,4.29
2022-08-15T09:30:00,thc,4.18
2022-08-15T09:31:00,thc,4.17
2022-08-15T09:32:00,thc,4.17
2022-08-15T09:33:00,thc,4.18
2022-08-15T09:34:00,thc,4.18
2022-08-15T09:35:00,thc,3.92
2022-08-15T09:36:00,thc,3.98
2022-08-15T09:37:00,thc,4.06
2022-08-15T09:38:00,thc,4.10
2022-08-15T09:39:00,thc,3.99
2022-08-15T09:40:00,thc,3.99
2022-08-15T09:41:00,thc,3.97
2022-08-15T09:42:00,thc,4.00
2022-08-15T09:43:00,thc,4.01
2022-08-15T09:44:00,thc,4.00
2022-08-15T09:45:00,thc,3.98
2022-08-15T09:46:00,thc,4.15
2022-08-15T09:47:00,thc,3.94
2022-08-15T09:48:00,thc,3.99
2022-08-15T09:49:00,thc,3.94
2022-08-15T09:50:00,thc,6.42
2022-08-15T09:51:00,thc,10.39
2022-08-15T09:52:00,thc,9.88
2022-08-15T09:53:00,thc,9.91
2022-08-15T09:54:00,thc,9.92
2022-08-15T09:55:00,thc,7.43
2022-08-15T09:56:00,thc,7.38
2022-08-15T09:57:00,thc,3.85
2022-08-15T09:58:00,thc,3.73
2022-08-15T09:59:00,thc,3.72
2022-08-15T10:00:00,thc,3.67
2022-08-15T10:01:00,thc,3.58
2022-08-15T10:02:00,thc,3.62
2022-08-15T10:03:00,thc,3.61
2022-08-15T10:04:00,thc,3.56
2022-08-15T10:05:00,thc,3.82
2022-08-15T10:06:00,thc,3.79
2022-08-15T10:07:00,thc,3.60
2022-08-15T10:08:00,thc,3.67
2022-08-15T10:09:00,thc,3.67
2022-08-15T10:10:00,thc,3.67
2022-08-15T10:11:00,thc,3.67
2022-08-15T10:12:00,thc,4.00
2022-08-15T10:13:00,thc,3.99
2022-08-15T10:14:00,thc,3.97
2022-08-15T10:15:00,thc,3.98
2022-08-15T10:16:00,thc,3.97
2022-08-15T10:17:00,thc,3.54
2022-08-15T10:18:00,thc,3.98
2022-08-15T10:19:00,thc,3.67
2022-08-15T10:20:00,thc,4.11
2022-08-15T10:21:00,thc,4.10
2022-08-15T10:22:00,thc,3.65
2022-08-15T10:23:00,thc,3.65
2022-08-15T10:24:00,thc,4.08
2022-08-15T10:25:00,thc,3.64
2022-08-15T10:26:00,thc,3.65
2022-08-15T10:27:00,thc,3.88
2022-08-15T10:28:00,thc,3.88
2022-08-15T10:29:00,thc,3.79
2022-08-15T10:30:00,thc,3.80
2022-08-15T10:31:00,thc,7.59
2022-08-15T10:32:00,thc,7.40
2022-08-15T10:33:00,thc,7.42
2022-08-15T10:34:00,thc,7.39
2022-08-15T10:35:00,thc,7.38
2022-08-15T10:36:00,thc,7.39
2022-08-15T10:37:00,thc,4.70
2022-08-15T10:38:00,thc,3.77
2022-08-15T10:39:00,thc,3.88
2022-08-15T10:40:00,thc,3.77
2022-08-15T10:41:00,thc,3.77
2022-08-15T10:42:00,thc,3.78
2022-08-15T10:43:00,thc,3.78
2022-08-15T10:44:00,thc,3.77
2022-08-15T10:45:00,thc,3.78
2022-08-15T10:46:00,thc,4.18
2022-08-15T10:47:00,thc,3.89
2022-08-15T10:48:00,thc,3.89
2022-08-15T10:49:00,thc,3.89
2022-08-15T10:50:00,thc,3.87
2022-08-15T10:51:00,thc,3.88
2022-08-15T10:52:00,thc,3.87
2022-08-15T10:53:00,thc,3.88
2022-08-15T10:54:00,thc,3.92
2022-08-15T10:55:00,thc,3.91
2022-08-15T10:56:00,thc,3.89
2022-08-15T10:57:00,thc,3.90
2022-08-15T10:58:00,thc,3.91
2022-08-15T10:59:00,thc,3.90
2022-08-15T11:00:00,thc,3.89
2022-08-15T11:01:00,thc,3.88
2022-08-15T11:02:00,thc,3.87
2022-08-15T11:03:00,thc,3.87
2022-08-15T11:04:00,thc,3.85
2022-08-15T11:05:00,thc,3.85
2022-08-15T11:06:00,thc,3.85
2022-08-15T11:07:00,thc,3.78
2022-08-15T11:08:00,thc,3.76
2022-08-15T11:09:00,thc,3.76
2022-08-15T11:10:00,thc,7.52
2022-08-15T11:11:00,thc,7.45
2022-08-15T11:12:00,thc,7.66
2022-08-15T11:13:00,thc,7.70
2022-08-15T11:14:00,thc,7.53
2022-08-15T11:15:00,thc,7.54
2022-08-15T11:16:00,thc,3.90
2022-08-15T11:17:00,thc,3.88
2022-08-15T11:18:00,thc,3.70
2022-08-15T11:19:00,thc,3.63
2022-08-15T11:20:00,thc,3.65
2022-08-15T11:21:00,thc,3.62
2022-08-15T11:22:00,thc,3.65
2022-08-15T11:23:00,thc,3.65
2022-08-15T11:24:00,thc,3.64
2022-08-15T11:25:00,thc,3.61
2022-08-15T11:26:00,thc,4.04
2022-08-15T11:27:00,thc,4.03
2022-08-15T11:28:00,thc,3.67
2022-08-15T11:29:00,thc,3.61
2022-08-15T11:30:00,thc,3.61
2022-08-15T11:31:00,thc,3.62
2022-08-15T11:32:00,thc,3.64
2022-08-15T11:33:00,thc,3.62
2022-08-15T11:34:00,thc,3.62
2022-08-15T11:35:00,thc,3.61
2022-08-15T11:36:00,thc,3.61
2022-08-15T11:37:00,thc,3.60
2022-08-15T11:38:00,thc,3.60
2022-08-15T11:39:00,thc,3.61
2022-08-15T11:40:00,thc,3.60
2022-08-15T11:41:00,thc,3.60
2022-08-15T11:42:00,thc,3.61
2022-08-15T11:43:00,thc,3.60
2022-08-15T11:44:00,thc,3.59
2022-08-15T11:45:00,thc,3.60
2022-08-15T11:46:00,thc,3.60
2022-08-15T11:47:00,thc,3.82
2022-08-15T11:48:00,thc,3.62
2022-08-15T11:49:00,thc,3.62
2022-08-15T11:50:00,thc,3.61
2022-08-15T11:51:00,thc,4.16
2022-08-15T11:52:00,thc,7.38
2022-08-15T11:53:00,thc,7.22
2022-08-15T11:54:00,thc,7.49
2022-08-15T11:55:00,thc,7.49
2022-08-15T11:56:00,thc,4.70
2022-08-15T11:57:00,thc,3.76
2022-08-15T11:58:00,thc,3.75
2022-08-15T11:59:00,thc,3.77
2022-08-15T12:00:00,thc,3.80
2022-08-15T12:01:00,thc,3.79
2022-08-15T12:02:00,thc,3.79
2022-08-15T12:03:00,thc,3.84
2022-08-15T12:04:00,thc,3.89
2022-08-15T12:05:00,thc,3.88
2022-08-15T12:06:00,thc,4.09
2022-08-15T12:07:00,thc,4.39
2022-08-15T12:08:00,thc,3.96
2022-08-15T12:09:00,thc,6.82
2022-08-15T12:10:00,thc,6.79
2022-08-15T12:11:00,thc,6.76
2022-08-15T12:12:00,thc,6.79
2022-08-15T12:13:00,thc,6.66
2022-08-15T12:14:00,thc,3.92
2022-08-15T12:15:00,thc,3.92
2022-08-15T12:16:00,thc,3.83
2022-08-15T12:17:00,thc,3.79
2022-08-15T12:18:00,thc,3.81
2022-08-15T12:19:00,thc,3.86
2022-08-15T12:20:00,thc,3.96
2022-08-15T12:21:00,thc,3.93
2022-08-15T12:22:00,thc,3.84
2022-08-15T12:23:00,thc,3.72
2022-08-15T12:24:00,thc,3.76
2022-08-15T12:25:00,thc,3.76
2022-08-15T12:26:00,thc,3.70
2022-08-15T12:27:00,thc,3.77
2022-08-15T12:28:00,thc,7.54
2022-08-15T12:29:00,thc,7.47
2022-08-15T12:30:00,thc,7.41
2022-08-15T12:31:00,thc,7.53
2022-08-15T12:32:00,thc,7.59
2022-08-15T12:33:00,thc,6.81
2022-08-15T12:34:00,thc,6.18
2022-08-15T12:35:00,thc,6.16
2022-08-15T12:36:00,thc,6.36
2022-08-15T12:37:00,thc,6.22
2022-08-15T12:38:00,thc,6.37
2022-08-15T12:39:00,thc,6.46
2022-08-15T12:40:00,thc,4.33
2022-08-15T12:41:00,thc,4.30
2022-08-15T12:42:00,thc,3.89
2022-08-15T12:43:00,thc,4.02
2022-08-15T12:44:00,thc,3.91
2022-08-15T12:45:00,thc,3.86
2022-08-15T12:46:00,thc,3.88
2022-08-15T12:47:00,thc,4.34
2022-08-15T12:48:00,thc,4.23
2022-08-15T12:49:00,thc,3.80
2022-08-15T12:50:00,thc,3.81
2022-08-15T12:51:00,thc,3.88
2022-08-15T12:52:00,thc,3.86
2022-08-15T12:53:00,thc,3.99
2022-08-15T12:54:00,thc,4.22
2022-08-15T12:55:00,thc,4.22
2022-08-15T12:56:00,thc,4.19
2022-08-15T12:57:00,thc,4.07
2022-08-15T12:58:00,thc,4.05
2022-08-15T12:59:00,thc,4.02
2022-08-15T13:00:00,thc,4.11
2022-08-15T13:01:00,thc,4.35
2022-08-15T13:02:00,thc,4.21
2022-08-15T13:03:00,thc,4.46
2022-08-15T13:04:00,thc,4.36
2022-08-15T13:05:00,thc,4.39
2022-08-15T13:06:00,thc,4.50
2022-08-15T13:07:00,thc,7.70
2022-08-15T13:08:00,thc,11.67
2022-08-15T13:09:00,thc,11.44
2022-08-15T13:10:00,thc,11.29
2022-08-15T13:11:00,thc,11.26
2022-08-15T13:12:00,thc,11.48
2022-08-15T13:13:00,thc,8.73
2022-08-15T13:14:00,thc,5.19
2022-08-15T13:15:00,thc,4.32
2022-08-15T13:16:00,thc,4.29
2022-08-15T13:17:00,thc,6.65
2022-08-15T13:18:00,thc,6.78
2022-08-15T13:19:00,thc,6.64
2022-08-15T13:20:00,thc,10.00
2022-08-15T13:21:00,thc,9.89
2022-08-15T13:22:00,thc,7.53
2022-08-15T13:23:00,thc,7.45
2022-08-15T13:24:00,thc,7.30
2022-08-15T13:25:00,thc,11.60
2022-08-15T13:26:00,thc,8.82
2022-08-15T13:27:00,thc,8.90
2022-08-15T13:28:00,thc,9.44
2022-08-15T13:29:00,thc,9.01
2022-08-15T13:30:00,thc,9.10
2022-08-15T13:31:00,thc,9.16
2022-08-15T13:32:00,thc,8.64
2022-08-15T13:33:00,thc,13.13
2022-08-15T13:34:00,thc,13.04
2022-08-15T13:35:00,thc,13.43
2022-08-15T13:36:00,thc,13.10
2022-08-15T13:37:00,thc,13.16
2022-08-15T13:38:00,thc,13.15
2022-08-15T13:39:00,thc,13.16
2022-08-15T13:40:00,thc,13.13
2022-08-15T13:41:00,thc,9.09
2022-08-15T13:42:00,thc,13.23
2022-08-15T13:43:00,thc,17.01
2022-08-15T13:44:00,thc,16.88
2022-08-15T13:45:00,thc,15.90
2022-08-15T13:46:00,thc,15.88
2022-08-15T13:47:00,thc,20.21
2022-08-15T13:48:00,thc,20.24
2022-08-15T13:49:00,thc,13.06
2022-08-15T13:50:00,thc,14.16
2022-08-15T13:51:00,thc,9.73
2022-08-15T13:52:00,thc,9.30
2022-08-15T13:53:00,thc,9.28
2022-08-15T13:54:00,thc,13.27
2022-08-15T13:55:00,thc,9.13
2022-08-15T13:56:00,thc,4.75
2022-08-15T13:57:00,thc,8.77
2022-08-15T13:58:00,thc,8.76
2022-08-15T13:59:00,thc,11.15
2022-08-15T14:00:00,thc,7.13
2022-08-15T14:01:00,thc,7.14
2022-08-15T14:02:00,thc,11.24
2022-08-15T14:03:00,thc,15.36
2022-08-15T14:04:00,thc,4.77
2022-08-15T14:05:00,thc,4.80
2022-08-15T14:06:00,thc,8.82
2022-08-15T14:07:00,thc,12.97
2022-08-15T14:08:00,thc,9.01
2022-08-15T14:09:00,thc,4.90
2022-08-15T14:10:00,thc,4.91
2022-08-15T14:11:00,thc,9.07
2022-08-15T14:12:00,thc,13.18
2022-08-15T14:13:00,thc,12.49
2022-08-15T14:14:00,thc,8.48
2022-08-15T14:15:00,thc,8.25
2022-08-15T14:16:00,thc,12.35
2022-08-15T14:17:00,thc,16.42
2022-08-15T14:18:00,thc,10.34
2022-08-15T14:19:00,thc,15.33
2022-08-15T14:20:00,thc,12.47
2022-08-15T14:21:00,thc,19.91
2022-08-15T14:22:00,thc,15.85
2022-08-15T14:23:00,thc,15.26
2022-08-15T14:24:00,thc,12.03
2022-08-15T14:25:00,thc,7.79
2022-08-15T14:26:00,thc,7.68
2022-08-15T14:27:00,thc,11.81
2022-08-15T14:28:00,thc,7.70
2022-08-15T14:29:00,thc,7.62
2022-08-15T14:30:00,thc,4.60
2022-08-15T14:31:00,thc,4.64
2022-08-15T14:32:00,thc,6.85
2022-08-15T14:33:00,thc,6.60
2022-08-15T14:34:00,thc,6.64
2022-08-15T14:35:00,thc,10.96
2022-08-15T14:36:00,thc,11.13
2022-08-15T14:37:00,thc,11.15
2022-08-15T14:38:00,thc,10.96
2022-08-15T14:39:00,thc,8.69
2022-08-15T14:40:00,thc,8.65
2022-08-15T14:41:00,thc,8.70
2022-08-15T14:42:00,thc,8.60
2022-08-15T14:43:00,thc,8.55
2022-08-15T14:44:00,thc,8.53
2022-08-15T14:45:00,thc,8.60
2022-08-15T14:46:00,thc,8.71
2022-08-15T14:47:00,thc,11.69
2022-08-15T14:48:00,thc,11.95
2022-08-15T14:49:00,thc,12.00
2022-08-15T14:50:00,thc,11.80
2022-08-15T14:51:00,thc,11.53
2022-08-15T14:52:00,thc,11.61
2022-08-15T14:53:00,thc,13.02
2022-08-15T14:54:00,thc,12.85
2022-08-15T14:55:00,thc,12.51
2022-08-15T14:56:00,thc,8.20
2022-08-15T14:57:00,thc,8.23
2022-08-15T14:58:00,thc,8.22
2022-08-15T14:59:00,thc,5.28
2022-08-15T15:00:00,thc,8.47
2022-08-15T15:01:00,thc,8.55
2022-08-15T15:02:00,thc,4.46
2022-08-15T15:03:00,thc,4.44
2022-08-15T15:04:00,thc,4.44
2022-08-15T15:05:00,thc,4.47
2022-08-15T15:06:00,thc,4.15
2022-08-15T15:07:00,thc,8.29
2022-08-15T15:08:00,thc,8.34
2022-08-15T15:09:00,thc,11.95
2022-08-15T15:10:00,thc,7.45
2022-08-15T15:11:00,thc,9.93
2022-08-15T15:12:00,thc,9.96
2022-08-15T15:13:00,thc,9.88
2022-08-15T15:14:00,thc,13.22
2022-08-15T15:15:00,thc,13.25
2022-08-15T15:16:00,thc,17.39
2022-08-15T15:17:00,thc,13.77
2022-08-15T15:18:00,thc,13.84
2022-08-15T15:19:00,thc,7.23
2022-08-15T15:20:00,thc,4.25
2022-08-15T15:21:00,thc,4.32
2022-08-15T15:22:00,thc,4.38
2022-08-15T15:23:00,thc,4.34
2022-08-15T15:24:00,thc,8.39
2022-08-15T15:25:00,thc,8.35
2022-08-15T15:26:00,thc,8.28
2022-08-15T15:27:00,thc,8.19
2022-08-15T15:28:00,thc,8.20
2022-08-15T15:29:00,thc,8.46
2022-08-15T15:30:00,thc,8.21
2022-08-15T15:31:00,thc,7.95
2022-08-15T15:32:00,thc,8.29
2022-08-15T15:33:00,thc,7.25
2022-08-15T15:34:00,thc,10.52
2022-08-15T15:35:00,thc,10.70
2022-08-15T15:36:00,thc,10.48
2022-08-15T15:37:00,thc,10.35
2022-08-15T15:38:00,thc,7.67
2022-08-15T15:39:00,thc,7.82
2022-08-15T15:40:00,thc,4.09
2022-08-15T15:41:00,thc,3.97
2022-08-15T15:42:00,thc,4.04
2022-08-15T15:43:00,thc,4.03
2022-08-15T15:44:00,thc,4.05
2022-08-15T15:45:00,thc,4.04
2022-08-15T15:46:00,thc,4.03
2022-08-15T15:47:00,thc,6.58
2022-08-15T15:48:00,thc,6.47
2022-08-15T15:49:00,thc,6.42
2022-08-15T15:50:00,thc,9.92
2022-08-15T15:51:00,thc,9.81
2022-08-15T15:52:00,thc,9.86
2022-08-15T15:53:00,thc,9.91
2022-08-15T15:54:00,thc,7.46
2022-08-15T15:55:00,thc,7.45
2022-08-15T15:56:00,thc,7.45
2022-08-15T15:57:00,thc,7.38
2022-08-15T15:58:00,thc,4.72
2022-08-15T15:59:00,thc,4.04
2022-08-15T16:00:00,thc,7.23
2022-08-15T16:01:00,thc,7.25
2022-08-15T16:02:00,thc,7.18
2022-08-15T16:03:00,thc,7.19
2022-08-15T16:04:00,thc,7.08
2022-08-15T16:05:00,thc,11.14
2022-08-15T16:06:00,thc,8.02
2022-08-15T16:07:00,thc,7.99
2022-08-15T16:08:00,thc,8.05
2022-08-15T16:09:00,thc,8.03
2022-08-15T16:10:00,thc,9.55
2022-08-15T16:11:00,thc,8.40
2022-08-15T16:12:00,thc,7.41
2022-08-15T16:13:00,thc,7.55
2022-08-15T16:14:00,thc,7.53
2022-08-15T16:15:00,thc,7.57
2022-08-15T16:16:00,thc,7.69
2022-08-15T16:17:00,thc,7.61
2022-08-15T16:18:00,thc,7.57
2022-08-15T16:19:00,thc,4.29
2022-08-15T16:20:00,thc,4.41
2022-08-15T16:21:00,thc,4.43
2022-08-15T16:22:00,thc,4.32
2022-08-15T16:23:00,thc,4.33
2022-08-15T16:24:00,thc,9.95
2022-08-15T16:25:00,thc,10.04
2022-08-15T16:26:00,thc,9.94
2022-08-15T16:27:00,thc,9.91
2022-08-15T16:28:00,thc,11.38
2022-08-15T16:29:00,thc,10.24
2022-08-15T16:30:00,thc,9.91
2022-08-15T16:31:00,thc,10.16
2022-08-15T16:32:00,thc,10.72
2022-08-15T16:33:00,thc,13.70
2022-08-15T16:34:00,thc,12.85
2022-08-15T16:35:00,thc,12.80
2022-08-15T16:36:00,thc,12.62
2022-08-15T16:37:00,thc,10.80
2022-08-15T16:38:00,thc,10.88
2022-08-15T16:39:00,thc,7.63
2022-08-15T16:40:00,thc,12.33
2022-08-15T16:41:00,thc,8.54
2022-08-15T16:42:00,thc,11.66
2022-08-15T16:43:00,thc,11.55
2022-08-15T16:44:00,thc,11.62
2022-08-15T16:45:00,thc,11.22
2022-08-15T16:46:00,thc,8.21
2022-08-15T16:47:00,thc,7.40
2022-08-15T16:48:00,thc,4.25
2022-08-15T16:49:00,thc,4.25
2022-08-15T16:50:00,thc,4.33
2022-08-15T16:51:00,thc,4.30
2022-08-15T16:52:00,thc,4.28
2022-08-15T16:53:00,thc,11.82
2022-08-15T16:54:00,thc,11.83
2022-08-15T16:55:00,thc,11.89
2022-08-15T16:56:00,thc,11.87
2022-08-15T16:57:00,thc,14.19
2022-08-15T16:58:00,thc,14.34
2022-08-15T16:59:00,thc,14.98
2022-08-15T17:00:00,thc,14.57
2022-08-15T17:01:00,thc,14.53
2022-08-15T17:02:00,thc,14.80
2022-08-15T17:03:00,thc,14.76
2022-08-15T17:04:00,thc,14.63
2022-08-15T17:05:00,thc,12.19
2022-08-15T17:06:00,thc,9.52
2022-08-15T17:07:00,thc,8.86
2022-08-15T17:08:00,thc,12.13
2022-08-15T17:09:00,thc,12.04
2022-08-15T17:10:00,thc,11.98
2022-08-15T17:11:00,thc,12.00
2022-08-15T17:12:00,thc,12.17
2022-08-15T17:13:00,thc,12.09
2022-08-15T17:14:00,thc,12.04
2022-08-15T17:15:00,thc,8.85
2022-08-15T17:16:00,thc,11.78
2022-08-15T17:17:00,thc,12.25
2022-08-15T17:18:00,thc,15.90
2022-08-15T17:19:00,thc,11.80
2022-08-15T17:20:00,thc,11.77
2022-08-15T17:21:00,thc,11.84
2022-08-15T17:22:00,thc,16.76
2022-08-15T17:23:00,thc,15.94
2022-08-15T17:24:00,thc,12.04
2022-08-15T17:25:00,thc,12.05
2022-08-15T17:26:00,thc,7.89
2022-08-15T17:27:00,thc,7.90
2022-08-15T17:28:00,thc,7.88
2022-08-15T17:29:00,thc,7.85
2022-08-15T17:30:00,thc,6.92
2022-08-15T17:31:00,thc,14.38
2022-08-15T17:32:00,thc,14.01
2022-08-15T17:33:00,thc,9.86
2022-08-15T17:34:00,thc,9.76
2022-08-15T17:35:00,thc,9.71
2022-08-15T17:36:00,thc,9.72
2022-08-15T17:37:00,thc,9.73
2022-08-15T17:38:00,thc,8.56
2022-08-15T17:39:00,thc,11.55
2022-08-15T17:40:00,thc,11.70
2022-08-15T17:41:00,thc,7.56
2022-08-15T17:42:00,thc,7.58
2022-08-15T17:43:00,thc,7.73
2022-08-15T17:44:00,thc,7.72
2022-08-15T17:45:00,thc,7.56
2022-08-15T17:46:00,thc,16.44
2022-08-15T17:47:00,thc,15.73
2022-08-15T17:48:00,thc,19.27
2022-08-15T17:49:00,thc,19.10
2022-08-15T17:50:00,thc,19.04
2022-08-15T17:51:00,thc,19.06
2022-08-15T17:52:00,thc,15.25
2022-08-15T17:53:00,thc,12.25
2022-08-15T17:54:00,thc,8.63
2022-08-15T17:55:00,thc,8.63
2022-08-15T17:56:00,thc,8.64
2022-08-15T17:57:00,thc,8.60
2022-08-15T17:58:00,thc,8.59
2022-08-15T17:59:00,thc,8.51
2022-08-15T18:00:00,thc,8.60
2022-08-15T18:01:00,thc,8.61
2022-08-15T18:02:00,thc,13.99
2022-08-15T18:03:00,thc,9.96
2022-08-15T18:04:00,thc,14.01
2022-08-15T18:05:00,thc,13.93
2022-08-15T18:06:00,thc,13.88
2022-08-15T18:07:00,thc,13.86
2022-08-15T18:08:00,thc,11.51
2022-08-15T18:09:00,thc,5.03
2022-08-15T18:10:00,thc,4.41
2022-08-15T18:11:00,thc,4.36
2022-08-15T18:12:00,thc,4.64
2022-08-15T18:13:00,thc,7.91
2022-08-15T18:14:00,thc,12.31
2022-08-15T18:15:00,thc,12.25
2022-08-15T18:16:00,thc,8.18
2022-08-15T18:17:00,thc,8.14
2022-08-15T18:18:00,thc,8.14
2022-08-15T18:19:00,thc,11.27
2022-08-15T18:20:00,thc,7.44
2022-08-15T18:21:00,thc,11.53
2022-08-15T18:22:00,thc,11.52
2022-08-15T18:23:00,thc,11.46
2022-08-15T18:24:00,thc,10.51
2022-08-15T18:25:00,thc,7.97
2022-08-15T18:26:00,thc,7.27
2022-08-15T18:27:00,thc,7.26
2022-08-15T18:28:00,thc,7.28
2022-08-15T18:29:00,thc,10.23
2022-08-15T18:30:00,thc,16.77
2022-08-15T18:31:00,thc,14.87
2022-08-15T18:32:00,thc,9.76
2022-08-15T18:33:00,thc,9.74
2022-08-15T18:34:00,thc,9.74
2022-08-15T18:35:00,thc,6.93
2022-08-15T18:36:00,thc,9.94
2022-08-15T18:37:00,thc,11.43
2022-08-15T18:38:00,thc,11.35
2022-08-15T18:39:00,thc,11.32
2022-08-15T18:40:00,thc,7.18
2022-08-15T18:41:00,thc,7.20
2022-08-15T18:42:00,thc,4.33
2022-08-15T18:43:00,thc,4.33
2022-08-15T18:44:00,thc,5.86
2022-08-15T18:45:00,thc,8.87
2022-08-15T18:46:00,thc,8.93
2022-08-15T18:47:00,thc,12.72
2022-08-15T18:48:00,thc,12.36
2022-08-15T18:49:00,thc,13.98
2022-08-15T18:50:00,thc,13.99
2022-08-15T18:51:00,thc,12.15
2022-08-15T18:52:00,thc,10.02
2022-08-15T18:53:00,thc,6.58
2022-08-15T18:54:00,thc,3.85
2022-08-15T18:55:00,thc,6.94
2022-08-15T18:56:00,thc,7.87
2022-08-15T18:57:00,thc,8.49
2022-08-15T18:58:00,thc,6.87
2022-08-15T18:59:00,thc,8.38
2022-08-15T19:00:00,thc,6.94
2022-08-15T19:01:00,thc,7.00
2022-08-15T19:02:00,thc,4.00
2022-08-15T19:03:00,thc,6.34
2022-08-15T19:04:00,thc,6.54
2022-08-15T19:05:00,thc,9.17
2022-08-15T19:06:00,thc,9.22
2022-08-15T19:07:00,thc,9.25
2022-08-15T19:08:00,thc,9.15
2022-08-15T19:09:00,thc,6.95
2022-08-15T19:10:00,thc,6.92
2022-08-15T19:11:00,thc,6.84
2022-08-15T19:12:00,thc,6.82
2022-08-15T19:13:00,thc,5.08
2022-08-15T19:14:00,thc,4.50
2022-08-15T19:15:00,thc,3.94
2022-08-15T19:16:00,thc,7.00
2022-08-15T19:17:00,thc,6.87
2022-08-15T19:18:00,thc,6.87
2022-08-15T19:19:00,thc,6.77
2022-08-15T19:20:00,thc,7.01
2022-08-15T19:21:00,thc,13.64
2022-08-15T19:22:00,thc,10.93
2022-08-15T19:23:00,thc,11.84
2022-08-15T19:24:00,thc,13.89
2022-08-15T19:25:00,thc,13.99
2022-08-15T19:26:00,thc,13.81
2022-08-15T19:27:00,thc,12.10
2022-08-15T19:28:00,thc,13.19
2022-08-15T19:29:00,thc,11.08
2022-08-15T19:30:00,thc,10.49
2022-08-15T19:31:00,thc,10.50
2022-08-15T19:32:00,thc,10.34
2022-08-15T19:33:00,thc,8.27
2022-08-15T19:34:00,thc,4.68
2022-08-15T19:35:00,thc,4.48
2022-08-15T19:36:00,thc,4.45
2022-08-15T19:37:00,thc,4.39
2022-08-15T19:38:00,thc,4.40
2022-08-15T19:39:00,thc,6.56
2022-08-15T19:40:00,thc,6.63
2022-08-15T19:41:00,thc,6.59
2022-08-15T19:42:00,thc,6.62
2022-08-15T19:43:00,thc,6.67